Naples, FL

7:35 PM EDT on April 19, 2018 (GMT -0400)
Naples Municipal

Weather History for KAPF - April, 2012

Change the Weather History Date:

Tuesday, April 17, 2012

  Actual Average Record
Temperature  
Mean Temperature 77 °F 73 °F  
Max Temperature 87 °F 83 °F 90 °F (1979)
Min Temperature 66 °F 64 °F 47 °F (1962)
Degree Days  
Heating Degree Days 0 0  
Month to date heating degree days 0 0  
Since 1 July heating degree days 121 256  
Cooling Degree Days 12 8  
Month to date cooling degree days 166 127  
Year to date cooling degree days 708 494  
Growing Degree Days 25 (Base 50)    
Moisture  
Dew Point 60 °F    
Average Humidity 58    
Maximum Humidity 78    
Minimum Humidity 37    
Precipitation  
Precipitation 0.00 in 0.09 in 0.82 in (2013)
Month to date precipitation 0.80 1.42  
Year to date precipitation 5.18 7.75  
Snow  
Snow 0.00 in - - ()
Month to date snowfall 0.0  
Since 1 July snowfall 0.0  
Snow Depth 0.00 in    
Sea Level Pressure  
Sea Level Pressure 30.10 in    
Wind  
Wind Speed 10 mph (ESE)    
Max Wind Speed 17 mph    
Max Gust Speed 21 mph    
Visibility 10 miles    
Events      
T = Trace of Precipitation, MM = Missing Value Source: NWS Daily Summary

Daily Weather History Graph

Daily Weather History Graph

Search for Another Location

Airport or City:

Astronomy

Apr. 17, 2012 Rise Set
Actual Time 7:01 AM EDT 7:51 PM EDT
Civil Twilight 6:37 AM EDT 8:15 PM EDT
Nautical Twilight 6:09 AM EDT 8:43 PM EDT
Astronomical Twilight 5:41 AM EDT 9:12 PM EDT
Moon 4:40 AM EDT (4/17) 4:59 PM EDT (4/17)
Length of Visible Light 13h 37m
Length of Day
12h 50m
Waning Crescent, 12% of the Moon is Illuminated
Apr 17
Waning Crescent
Apr 21
New
Apr 29
First Quarter
May 5
Full
May 12
Last Quarter

Hourly Weather History & Observations

Time (EDT) Temp. Heat Index Dew Point Humidity Pressure Visibility Wind Dir Wind Speed Gust Speed Precip Events Conditions
12:53 AM 69.1 °F - 60.1 °F 73% 30.14 in 10.0 mi East 8.1 mph - N/A   Clear
1:53 AM 68.0 °F - 61.0 °F 78% 30.13 in 10.0 mi East 8.1 mph - N/A   Mostly Cloudy
2:53 AM 69.1 °F - 61.0 °F 75% 30.13 in 10.0 mi East 6.9 mph - N/A   Overcast
3:53 AM 69.1 °F - 61.0 °F 75% 30.11 in 10.0 mi East 5.8 mph - N/A   Mostly Cloudy
4:53 AM 68.0 °F - 60.1 °F 76% 30.10 in 10.0 mi ENE 9.2 mph - N/A   Mostly Cloudy
5:53 AM 69.1 °F - 59.0 °F 70% 30.11 in 10.0 mi East 9.2 mph - N/A   Overcast
6:53 AM 66.0 °F - 59.0 °F 78% 30.12 in 10.0 mi ENE 6.9 mph - N/A   Partly Cloudy
7:53 AM 66.9 °F - 59.0 °F 76% 30.14 in 10.0 mi East 9.2 mph - N/A   Clear
8:53 AM 73.0 °F - 59.0 °F 61% 30.15 in 10.0 mi East 11.5 mph - N/A   Clear
9:53 AM 78.1 °F - 59.0 °F 52% 30.15 in 10.0 mi East 11.5 mph - N/A   Clear
10:53 AM 81.0 °F 80.8 °F 55.9 °F 42% 30.15 in 10.0 mi East 12.7 mph - N/A   Clear
11:53 AM 82.0 °F 81.7 °F 57.0 °F 42% 30.15 in 10.0 mi East 9.2 mph - N/A   Scattered Clouds
12:53 PM 84.0 °F 83.0 °F 55.9 °F 38% 30.12 in 10.0 mi ESE 10.4 mph 16.1 mph N/A   Scattered Clouds
1:53 PM 84.0 °F 82.9 °F 55.0 °F 37% 30.10 in 10.0 mi South 10.4 mph 16.1 mph N/A   Mostly Cloudy
2:53 PM 84.9 °F 85.4 °F 62.1 °F 46% 30.08 in 10.0 mi SW 15.0 mph - N/A   Mostly Cloudy
3:53 PM 84.0 °F 84.4 °F 61.0 °F 46% 30.06 in 10.0 mi SW 11.5 mph - N/A   Scattered Clouds
4:53 PM 82.0 °F 83.0 °F 62.1 °F 51% 30.04 in 10.0 mi WSW 9.2 mph - N/A   Scattered Clouds
5:53 PM 80.1 °F 81.7 °F 64.0 °F 58% 30.05 in 10.0 mi SW 9.2 mph - N/A   Scattered Clouds
6:53 PM 78.1 °F - 64.0 °F 62% 30.05 in 10.0 mi SW 11.5 mph - N/A   Mostly Cloudy
7:53 PM 77.0 °F - 64.0 °F 64% 30.06 in 10.0 mi SSW 9.2 mph - N/A   Mostly Cloudy
8:53 PM 75.9 °F - 66.0 °F 71% 30.07 in 10.0 mi South 8.1 mph - N/A   Clear
9:53 PM 75.9 °F - 59.0 °F 56% 30.08 in 10.0 mi ESE 13.8 mph - N/A   Partly Cloudy
10:53 PM 73.0 °F - 59.0 °F 61% 30.09 in 10.0 mi ESE 8.1 mph - N/A   Clear
11:53 PM 71.1 °F - 59.0 °F 66% 30.10 in 10.0 mi ESE 9.2 mph - N/A   Clear